This demonstration page uses our WeatherBlox Daily Observations layout. Learn more.

Left ArrowRight Arrow

39.92423, -83.80882

Hourly Observations for January 28, 2015

Temp ( °F °C ) Dew Point ( °F °C ) Humidity (%) Winds ( mph kmh ) Pressure ( in mb ) Visibility ( mi km ) Precip ( " mm )
12:56 am 00:56 Clear with Mist and Fog 10 -12.2 7 -13.8 88 88 Calm 30.29 1026 3 5 0.00 0.00
1:10 am 01:10 Clear with Mist and Fog 10 -12 7 -14 85 85 Calm 30.36 1028 3 4 0.00 0.00
1:19 am 01:19 Clear with Mist and Fog 9 -13 7 -14 92 92 Calm 30.36 1028 3 5 0.00 0.00
1:26 am 01:26 Clear with Mist and Fog 9 -13 7 -14 92 92 Calm 30.36 1028 2 3 0.00 0.00
1:34 am 01:34 Clear with Mist and Fog 9 -13 7 -14 92 92 S 3 6 30.36 1028 2 2 0.00 0.00
1:41 am 01:41 Clear with Mist and Fog 9 -13 5 -15 85 85 S 3 6 30.36 1028 1 2 0.00 0.00
1:46 am 01:46 Clear with Freezing Fog 7 -14 3 -16 85 85 Calm 30.36 1028 1 1 0.00 0.00
1:56 am 01:56 Clear with Freezing Fog 6 -14.4 3 -16.1 87 87 Calm 30.30 1026 1 1 0.00 0.00
2:07 am 02:07 Clear with Mist and Fog 7 -14 3 -16 85 85 Calm 30.36 1028 1 2 0.00 0.00
2:14 am 02:14 Clear with Freezing Fog 7 -14 3 -16 85 85 Calm 30.36 1028 1 1 0.00 0.00
2:30 am 02:30 Clear with Mist and Fog 3 -16 1 -17 92 92 Calm 30.39 1029 1 2 0.00 0.00
2:32 am 02:32 Clear with Mist and Fog 3 -16 1 -17 92 92 Calm 30.39 1029 2 3 0.00 0.00
2:36 am 02:36 Clear with Mist and Fog 3 -16 0 -18 85 85 Calm 30.39 1029 1 2 0.00 0.00
2:39 am 02:39 Clear with Freezing Fog 1 -17 0 -18 92 92 Calm 30.39 1029 0 0 0.00 0.00
2:48 am 02:48 Clear with Freezing Fog 1 -17 -2 -19 85 85 Calm 30.39 1029 5 8 0.00 0.00
2:56 am 02:56 Clear with Freezing Fog 2 -16.6 -2 -18.8 83 83 Calm 30.32 1027 5 8 0.00 0.00
3:22 am 03:22 Clear with Mist and Fog 3 -16 1 -17 92 92 Calm 30.42 1030 1 2 0.00 0.00
3:24 am 03:24 Clear with Mist and Fog 3 -16 1 -17 92 92 Calm 30.42 1030 2 3 0.00 0.00
3:47 am 03:47 Clear with Mist and Fog 3 -16 0 -18 85 85 Calm 30.42 1030 3 5 0.00 0.00
3:56 am 03:56 Clear with Mist and Fog 4 -15.5 1 -17.2 87 87 Calm 30.34 1027 4 6 0.00 0.00
4:48 am 04:48 Clear with Mist and Fog 3 -16 0 -18 85 85 Calm 30.45 1031 2 3 0.00 0.00
4:56 am 04:56 Clear with Mist and Fog 4 -15.5 1 -17.2 87 87 S 3 6 30.36 1028 3 5 0.00 0.00
5:56 am 05:56 Clear with Mist and Fog 3 -16.1 -1 -18.3 83 83 Calm 30.38 1029 4 6 0.00 0.00
6:33 am 06:33 Clear with Mist and Fog 3 -16 0 -18 85 85 Calm 30.45 1031 2 3 0.00 0.00
6:35 am 06:35 Clear with Mist and Fog 3 -16 0 -18 85 85 Calm 30.45 1031 1 2 0.00 0.00
6:45 am 06:45 Clear with Mist and Fog 3 -16 0 -18 85 85 Calm 30.45 1031 2 3 0.00 0.00
6:56 am 06:56 Clear with Mist and Fog 2 -16.6 -1 -18.3 87 87 Calm 30.40 1029 1 2 0.00 0.00
6:58 am 06:58 Clear with Freezing Fog 1 -17 0 -18 92 92 Calm 30.45 1031 1 1 0.00 0.00
7:12 am 07:12 Clear with Freezing Fog 1 -17 -2 -19 85 85 Calm 30.45 1031 5 8 0.00 0.00
7:56 am 07:56 Sunny with Mist and Fog -1 -18.3 -5 -20.5 83 83 Calm 30.42 1030 3 5 0.00 0.00
8:56 am 08:56 Sunny with Mist and Fog 6 -14.4 3 -16.1 87 87 Calm 30.43 1030 4 6 0.00 0.00
9:56 am 09:56 Sunny with Mist and Fog 14 -10 12 -11.1 92 92 Calm 30.44 1031 3 5 0.00 0.00
10:56 am 10:56 Sunny with Mist and Fog 20 -6.6 18 -7.7 92 92 SSE 5 7 30.44 1031 6 10 0.00 0.00
11:56 am 11:56 Sunny 21 -6.1 17 -8.3 85 85 SSE 5 7 30.43 1030 7 11 0.00 0.00
12:56 pm 12:56 Sunny 24 -4.4 16 -8.8 72 72 SSE 6 9 30.39 1029 7 11 0.00 0.00
1:56 pm 13:56 Sunny 26 -3.3 16 -8.8 66 66 SE 8 13 30.37 1028 7 11 0.00 0.00
2:56 pm 14:56 Sunny 26 -3.3 16 -8.8 66 66 SE 8 13 30.35 1028 9 14 0.00 0.00
3:56 pm 15:56 Sunny 26 -3.3 17 -8.3 69 69 SSE 10 17 30.33 1027 8 13 0.00 0.00
4:56 pm 16:56 Sunny 26 -3.3 18 -7.7 72 72 SE 8 13 30.33 1027 8 13 0.00 0.00
5:56 pm 17:56 Hazy 23 -5 18 -7.7 82 82 SE 8 13 30.31 1027 6 10 0.00 0.00
6:56 pm 18:56 Clear 22 -5.5 18 -7.7 85 85 SE 8 13 30.31 1027 8 13 0.00 0.00
7:56 pm 19:56 Clear 22 -5.5 17 -8.3 81 81 SE 8 13 30.30 1026 8 13 0.00 0.00
8:56 pm 20:56 Clear 24 -4.4 17 -8.3 75 75 SSE 13 20 30.27 1025 9 14 0.00 0.00
9:56 pm 21:56 Clear 25 -3.8 18 -7.7 75 75 SSE 12 19 30.25 1025 9 14 0.00 0.00
10:56 pm 22:56 Clear 26 -3.3 19 -7.2 75 75 SSE 14 22 30.20 1023 9 14 0.00 0.00
11:56 pm 23:56 Clear 26 -3.3 19 -7.2 75 75 SE 15 24 30.18 1022 9 14 0.00 0.00

Powered by AerisWeather